Wind_Speed
5 2 7 9 7 7 5 6 9 14 16 7 9 13 10 18 13 8 9 7 16 16 17 22 6 26 22 14 11 9 19 19 20 19 18 19 18 15 11 6 3 6 5 10
2 8 10 8 7 6 7 8 17 11 6 4 5 10 4 7 8 18 16 10 14 9 6 8 11 19 24 19 15 15 19 18 10 10 17 16 15 7 5 1 3 5 7 8
8 9 7 11 10 7 10 6 9 8 5 2 3 6 5 7 16 14 9 10 10 17 11 6 12 19 21 21 17 12 11 13 11 16 17 15 9 8 5 4 3 4 6 6
7 10 12 9 12 8 8 8 9 5 5 4 4 4 7 6 9 10 12 14 12 10 6 5 10 18 19 20 19 18 16 15 12 10 11 11 11 9 4 3 0 3 6 6
8 3 7 8 14 9 11 8 5 2 2 2 2 4 8 12 4 8 6 5 9 11 10 10 12 17 17 19 16 15 15 16 14 15 13 14 12 11 9 4 5 7 6 2
8 4 5 9 16 9 9 2 7 6 3 2 5 6 5 5 10 7 8 10 11 13 12 12 18 24 22 19 17 15 15 15 15 15 13 11 11 9 6 4 2 6 8 6
7 11 5 6 8 5 4 6 3 5 4 7 4 3 8 3 19 19 17 14 11 13 15 15 14 19 24 21 18 17 17 16 13 12 11 9 6 5 5 3 3 3 4 7
7 12 11 8 8 10 8 10 6 6 3 7 4 3 6 9 15 23 19 17 14 11 10 12 16 19 23 21 19 19 17 16 12 10 9 8 7 6 5 4 3 4 7 8
5 7 7 6 4 8 4 3 9 6 1 2 3 1 5 7 14 17 16 15 13 13 12 12 17 18 23 21 19 17 14 11 10 10 9 8 7 5 5 4 3 6 7 8
8 10 13 16 3 6 6 6 3 3 4 5 5 3 5 7 14 15 16 15 13 11 11 10 15 18 22 19 18 15 13 13 14 12 10 9 6 4 4 2 3 6 6 8
15 6 16 5 6 10 5 1 5 5 5 7 4 6 7 16 20 23 20 19 17 15 14 13 15 18 25 25 25 22 18 18 16 14 10 7 4 4 1 1 2 4 5 8
9 7 12 19 13 7 7 8 8 6 6 3 4 7 3 15 16 18 16 16 16 16 16 15 22 25 22 26 25 22 20 16 14 11 7 4 5 3 1 2 1 5 7 6
6 2 6 9 8 2 6 7 8 4 3 8 6 7 3 8 4 8 20 18 18 19 19 17 21 27 29 24 20 18 20 16 12 9 5 4 3 1 2 2 4 7 6 6
4 6 9 16 15 6 5 5 9 8 5 6 8 7 5 6 13 20 19 20 21 19 19 16 13 20 25 27 23 24 18 12 8 6 4 3 3 2 3 4 7 9 9 9
1 5 5 18 19 16 12 8 6 5 7 8 9 10 10 12 16 24 24 20 20 16 13 14 13 17 23 26 24 21 15 8 5 4 5 4 4 5 6 8 10 11 12 13
1 4 7 13 15 18 13 11 10 5 5 6 5 7 4 7 12 15 22 21 19 15 13 13 13 20 21 25 26 20 12 6 5 3 3 4 8 8 7 7 8 9 7 10
2 1 4 6 12 7 7 19 10 5 6 7 7 8 9 8 16 20 19 19 15 14 15 15 15 21 22 26 26 17 10 8 5 2 2 7 4 2 3 6 7 9 13 13
8 4 3 5 6 6 12 8 9 10 7 5 5 12 15 19 13 14 17 14 14 14 16 15 18 19 25 25 20 15 11 7 5 2 5 1 2 3 6 7 10 12 14 15
8 4 2 4 5 7 10 2 7 7 9 7 12 14 15 11 10 4 9 12 16 18 17 17 22 27 27 25 19 14 10 8 3 3 4 1 4 5 6 9 10 12 13 17
9 6 6 1 4 11 3 5 2 5 6 2 15 23 23 12 6 4 8 14 12 19 22 25 28 31 27 20 16 14 11 5 6 3 1 3 6 4 8 8 11 15 16 20
4 3 12 9 6 7 5 3 5 8 11 6 18 19 8 6 5 9 13 13 20 24 27 31 31 27 22 18 17 12 11 8 5 2 1 4 4 7 9 12 13 17 18 19
9 7 5 3 5 13 4 3 10 7 2 11 6 6 14 19 19 16 17 16 17 23 25 28 28 23 19 17 15 14 9 6 3 1 4 4 6 7 8 12 14 18 19 12
8 11 7 10 7 4 3 5 2 4 7 5 13 14 23 21 19 17 15 15 16 23 22 27 27 22 18 16 13 13 10 6 2 2 5 7 8 10 12 14 19 17 15 5
5 1 5 4 6 7 9 5 8 4 2 8 18 22 23 21 18 20 19 12 14 20 21 25 25 21 17 14 12 9 10 5 3 4 6 6 10 11 14 11 13 12 6 4
4 6 3 5 4 4 0 5 14 10 8 13 18 23 22 20 17 17 16 14 18 20 22 25 23 19 16 15 10 12 8 4 3 4 5 8 8 10 11 16 16 15 3 2
2 5 3 3 2 1 4 2 4 18 16 17 19 17 18 20 17 15 13 20 22 20 25 24 20 18 17 14 12 11 6 2 1 3 6 8 11 14 12 16 22 7 3 2
Wind_Direction
278 102 231 240 221 213 244 257 277 288 283 272 233 218 228 196 201 171 152 160 164 158 169 177 190 134 141 101 100 129 174 161 157 149 148 140 137 150 158 167 277 274 308 331
324 240 231 232 244 251 264 270 279 279 255 5 0 267 264 125 184 155 146 139 150 143 164 149 158 118 105 82 92 117 142 160 181 214 179 173 155 166 174 177 280 303 333 333
194 236 202 235 262 255 259 222 258 245 326 334 55 336 310 47 107 119 122 139 167 157 162 140 120 112 90 90 96 112 137 179 196 178 182 157 155 148 167 189 261 344 348 1
225 243 246 247 249 236 267 229 254 334 40 287 79 270 310 92 84 120 149 167 161 152 141 128 109 114 102 99 104 115 122 128 142 153 150 160 173 165 175 175 258 356 343 339
236 220 225 243 246 252 250 266 252 317 96 34 54 99 266 131 127 159 164 173 157 147 143 135 136 137 123 116 114 113 118 124 137 146 145 151 147 140 139 116 51 57 28 250
227 263 214 238 253 231 260 214 31 37 54 339 250 142 277 188 174 171 169 169 162 144 129 116 117 119 120 122 130 135 134 125 130 138 136 135 136 135 107 77 55 68 91 90
294 278 275 254 284 290 177 64 345 340 347 246 8 13 237 227 169 171 165 161 163 148 137 139 135 132 133 138 140 140 141 133 136 136 129 120 106 116 114 95 84 72 25 1
210 273 261 241 194 231 203 155 157 213 224 271 335 265 281 305 169 152 151 154 151 146 145 142 136 134 139 144 149 150 146 136 128 114 108 114 133 135 130 119 101 40 12 8
186 253 263 252 251 153 225 151 188 150 46 359 234 140 34 64 104 130 140 151 160 157 154 141 133 146 148 151 155 155 143 123 125 131 134 144 149 148 135 118 62 19 30 20
227 260 260 268 8 288 193 176 92 11 209 260 274 215 200 169 148 152 161 164 162 155 140 137 135 150 158 160 157 160 161 160 159 159 157 156 159 151 138 104 52 32 27 11
210 165 255 310 181 239 312 282 63 128 142 194 262 262 215 181 175 172 173 169 157 148 142 135 135 158 168 167 168 169 170 165 160 157 159 158 171 164 120 104 62 23 7 8
222 198 234 242 233 187 184 233 181 150 227 204 189 267 233 177 179 175 156 140 140 143 139 139 147 149 160 166 168 167 168 163 160 163 159 155 165 174 250 191 280 344 350 13
325 291 251 288 299 138 188 199 203 122 87 199 196 261 81 149 128 120 137 141 144 147 155 161 161 157 156 169 174 172 167 161 165 161 155 160 182 174 292 283 291 334 344 330
251 217 202 232 222 172 203 222 206 168 139 193 222 231 235 164 149 145 151 152 154 159 168 161 164 155 155 164 167 161 159 163 159 149 178 201 212 274 289 294 306 305 309 307
92 261 263 235 224 230 224 218 185 222 208 166 221 200 218 187 166 164 158 154 155 165 156 168 162 149 161 165 163 160 162 160 148 174 203 219 251 274 303 298 300 307 296 305
227 270 345 277 214 220 227 213 214 198 189 243 223 238 224 124 132 150 158 157 162 171 170 171 156 153 162 162 165 166 157 152 166 186 232 253 282 271 304 323 324 322 340 324
252 245 30 280 307 191 244 233 212 209 197 177 201 204 147 140 161 163 164 167 170 165 174 163 160 166 162 164 167 159 155 159 164 165 259 320 304 287 6 349 349 333 332 329
241 144 160 253 317 239 244 183 183 205 214 131 99 149 164 162 166 168 175 164 165 168 163 162 161 149 160 163 155 151 158 160 149 213 320 71 65 13 347 333 328 316 318 326
199 151 245 194 202 283 294 268 158 165 253 194 141 139 130 125 114 5 202 178 175 163 156 146 146 152 151 149 149 154 158 152 140 35 116 27 343 329 326 328 324 320 322 327
186 183 194 195 226 235 296 219 68 77 249 86 150 156 154 148 131 222 136 136 117 114 125 122 131 139 142 145 150 146 138 136 130 130 46 340 320 323 323 323 315 331 326 323
182 168 209 226 231 283 279 195 128 165 242 167 163 164 152 119 136 129 114 102 110 119 118 125 134 141 143 146 145 133 137 139 128 83 345 308 302 313 320 317 308 319 321 324
202 175 192 124 192 251 198 290 166 212 167 130 105 130 114 119 119 121 115 107 115 117 118 131 132 139 144 147 141 135 133 128 107 340 321 333 337 332 320 323 324 322 318 325
241 208 212 185 205 217 270 174 243 186 146 159 123 129 124 123 122 119 111 122 127 125 130 139 140 143 145 143 146 137 137 134 111 55 353 343 337 333 324 329 333 332 333 327
267 1 198 121 211 197 194 243 125 25 305 129 135 136 130 127 129 131 123 137 130 131 138 145 143 143 139 142 149 155 150 128 91 16 7 19 349 353 348 347 344 336 355 141
248 325 261 251 44 62 109 256 159 135 99 138 143 144 139 136 137 133 131 131 138 141 148 151 146 146 148 152 148 150 137 126 68 8 343 346 346 341 334 334 344 347 346 54
43 270 226 187 341 205 278 20 237 153 148 165 148 135 132 130 133 133 133 140 143 151 153 150 149 149 157 166 157 148 134 115 51 311 327 325 322 334 341 346 349 357 140 65
Height
784 803 816 807 804 803 805 811 813 793 774 780 777 768 763 763 771 779 782 778 777 785 782 788 797 795 795 800 804 807 807 812 814 808 818 826 825 829 832 832 833 833 832 832
796 812 794 790 793 800 804 813 807 788 771 769 772 776 758 756 763 767 778 782 783 785 786 787 792 796 796 802 805 807 809 813 816 817 820 824 825 830 830 832 832 833 832 831
807 793 782 789 794 802 801 806 801 795 777 770 772 788 772 776 769 771 777 778 784 777 782 787 793 793 798 802 806 808 811 816 817 819 821 823 825 830 831 831 833 832 831 829
796 779 784 789 793 791 811 781 780 781 796 818 781 831 789 794 788 785 785 788 787 788 791 793 796 797 805 806 810 814 816 820 822 826 825 825 826 828 830 832 833 831 829 828
791 780 786 792 786 776 791 771 774 775 795 801 801 825 800 791 801 795 795 795 791 788 790 795 799 801 805 808 813 816 819 821 825 825 824 826 827 829 832 831 829 829 828 828
782 765 773 774 765 768 764 767 785 797 808 830 804 816 815 795 792 794 794 794 794 790 792 797 800 801 805 809 816 821 822 823 825 826 828 828 828 829 827 830 831 831 831 831
785 778 768 764 778 766 768 799 836 838 841 835 797 805 801 769 771 772 786 794 797 796 796 801 802 806 808 813 818 821 822 824 826 827 827 827 826 828 831 832 833 833 832 830
809 808 772 759 771 778 784 794 836 844 849 831 797 807 795 767 752 760 776 786 793 797 798 800 800 805 809 814 818 822 824 824 825 824 826 830 831 833 834 834 833 832 831 829
803 798 758 756 753 764 776 794 782 809 814 827 812 787 777 777 778 780 788 794 798 797 797 800 801 807 810 814 819 822 822 822 825 829 831 834 835 835 834 833 832 831 830 828
777 796 761 754 752 754 764 758 798 820 831 840 816 798 805 791 789 789 793 794 796 797 799 803 806 812 814 817 820 824 827 830 831 833 833 835 837 835 833 832 831 830 829 827
758 783 768 761 769 775 775 778 784 796 815 834 836 815 770 766 769 773 779 782 788 796 799 804 809 815 817 819 823 827 830 832 832 833 833 833 835 834 832 831 830 828 827 824
762 774 783 768 747 745 755 765 778 809 809 811 816 810 747 751 757 760 771 782 788 793 795 799 804 812 823 823 824 827 829 830 831 831 832 832 834 833 831 829 828 826 824 821
769 784 793 778 761 748 756 754 758 777 787 798 813 804 752 751 758 765 770 778 785 787 790 794 799 797 807 821 824 825 827 828 830 829 830 831 832 830 828 827 825 823 820 818
760 772 775 776 760 755 759 748 749 760 798 790 787 774 758 761 760 763 769 772 775 779 782 790 799 799 805 813 820 823 825 827 827 826 829 830 830 828 825 823 822 820 817 816
760 775 764 738 734 735 740 743 743 756 756 774 762 768 753 755 753 751 756 767 772 778 784 790 792 795 803 809 816 820 822 823 823 826 827 827 826 824 822 821 819 817 816 815
755 770 764 753 730 729 737 735 736 739 743 751 744 752 735 746 751 758 757 763 769 774 781 788 790 795 801 805 811 817 818 820 823 824 825 825 824 822 821 819 818 816 815 813
758 761 768 773 751 735 753 725 731 730 730 736 753 740 742 753 751 753 757 758 765 771 778 781 787 791 797 803 808 811 815 820 822 822 823 823 822 821 820 819 817 816 813 811
757 764 767 773 761 772 716 706 709 722 720 723 735 736 734 736 743 748 746 753 761 765 773 778 784 790 796 803 807 812 817 820 820 822 822 822 822 821 820 818 816 814 812 810
745 763 770 770 774 749 721 708 713 721 726 713 728 732 732 738 745 754 749 751 754 759 769 776 783 790 797 803 808 814 817 819 820 821 822 823 822 820 818 816 814 812 810 808
739 746 759 767 770 765 720 703 701 706 739 713 715 727 727 732 761 760 747 754 761 765 773 778 786 794 801 807 811 814 817 818 820 821 822 821 820 818 817 815 813 810 808 805
751 754 754 755 762 743 712 701 700 741 726 711 713 718 726 735 737 748 753 760 763 768 775 782 791 799 804 809 812 814 817 819 820 820 820 820 818 816 815 813 811 808 806 803
744 753 754 757 761 754 708 704 717 708 707 705 715 721 728 730 740 750 756 764 772 774 782 789 795 802 806 810 812 815 817 818 819 819 819 818 816 814 813 811 808 805 803 801
740 722 731 728 731 711 704 702 696 699 702 707 708 720 722 735 744 753 761 770 776 779 787 792 798 804 807 810 813 815 816 817 818 818 817 816 814 813 811 809 806 802 800 797
718 712 717 714 703 702 702 697 693 701 703 704 705 713 723 739 746 751 757 778 781 784 791 796 799 805 807 809 813 815 815 816 816 816 816 814 812 811 809 806 804 801 799 797
725 718 715 706 694 693 695 693 687 700 706 709 711 715 721 732 748 750 760 770 780 787 794 798 800 803 806 809 812 814 815 815 816 816 815 813 811 809 807 805 802 801 799 798
721 724 716 711 705 705 704 694 692 693 698 711 717 724 725 734 747 756 765 773 780 789 793 796 799 802 806 809 811 812 814 814 815 815 814 812 809 807 806 803 800 799 799 798